Location: Unspecified
(40.7945°N, 0.0000°E)
Time: 07:57:14
(UTC+00:00)

Envisat - Visible Passes

Search period start: 26 November 2020 00:00
Search period end: 06 December 2020 00:00
Orbit: 764 x 766 km, 98.1° (Epoch: 25 November)

Date Brightness Start Highest point End Pass type
(mag) Time Alt. Az. Time Alt. Az. Time Alt. Az.
26 Nov 5.1 05:08:18 10° NE 05:12:41 29° E 05:17:01 10° SSE visible
26 Nov 5.4 18:02:01 10° SSW 18:06:10 25° W 18:10:22 10° NW visible
27 Nov 6.2 04:33:21 10° ENE 04:35:31 13° E 04:37:40 10° ESE visible
27 Nov 2.9 06:09:58 10° N 06:15:03 73° WNW 06:20:06 10° SSW visible
27 Nov 3.8 17:24:12 10° S 17:29:11 57° W 17:34:12 10° NNW visible
28 Nov 4.0 05:33:16 10° NNE 05:38:13 50° E 05:43:08 10° S visible
28 Nov 6.1 18:29:07 10° WSW 18:31:50 14° W 18:34:34 10° WNW visible
29 Nov 5.5 04:57:14 10° NE 05:01:12 23° E 05:05:09 10° SE visible
29 Nov 4.9 17:50:12 10° SSW 17:54:43 32° W 17:59:16 10° NNW visible
30 Nov 3.0 05:58:34 10° NNE 06:03:40 89° ESE 06:08:45 10° SSW visible
30 Nov 3.3 17:12:43 10° S 17:17:47 73° WSW 17:22:52 10° NNW visible
01 Dec 4.4 05:22:01 10° NNE 05:26:48 39° E 05:31:32 10° SSE visible
01 Dec 5.8 18:16:51 10° SW 18:20:20 18° W 18:23:50 10° NW visible
02 Dec 5.8 04:46:18 10° NE 04:49:43 18° E 04:53:06 10° SE visible
02 Dec 3.1 06:24:06 10° N 06:29:02 52° WNW 06:33:56 10° SSW visible
02 Dec 4.5 17:38:30 10° SSW 17:43:16 41° W 17:48:04 10° NNW visible
03 Dec 3.3 05:47:12 10° NNE 05:52:17 71° ESE 05:57:20 10° S visible
03 Dec 3.0 17:01:19 10° SSE 17:06:23 88° ENE 17:11:30 10° NNW visible
04 Dec 4.9 05:10:51 10° NNE 05:15:21 31° E 05:19:49 10° SSE visible
04 Dec 5.5 18:04:50 10° SSW 18:08:51 23° W 18:12:53 10° NW visible
05 Dec 6.1 04:35:37 10° ENE 04:38:12 14° E 04:40:46 10° ESE visible
05 Dec 3.0 06:12:37 10° N 06:17:41 67° WNW 06:22:42 10° SSW visible
05 Dec 3.9 17:26:54 10° S 17:31:50 52° W 17:36:48 10° NNW visible
